Regional Weather Roundup
Issued by NWS

Home | Current Version | Previous Version | Graphics & Text | Print | Product List | Glossary Off
Versions: 1 2 3 4 5 6 7 8 9 10 11 12 13 14 15 16 17 18 19 20 21 22 23 24 25 26 27 28 29 30 31 32 33 34 35 36 37 38 39 40 41 42 43 44 45 46 47 48 49 50

000
ASUS45 KPSR 251110
RWRAZ

ARIZONA REGIONAL HOURLY WEATHER ROUNDUP
NATIONAL WEATHER SERVICE TUCSON AZ
400 AM MST THU MAY 25 2017

NOTE: FAIR INDICATES FEW OR NO CLOUDS BELOW 12,000 FEET WITH NO
SIGNIFICANT WEATHER AND/OR OBSTRUCTIONS TO VISIBILITY.

AZZ001>003-036-251200-
NORTHWEST ARIZONA

CITY           SKY/WX    TMP DP  RH WIND       PRES   REMARKS
BULLHEAD CITY  CLEAR     84  34  16 SE8       29.52S
KINGMAN        CLEAR     73  25  16 SW17      29.66F
$$

AZZ004>008-015-016-018-251200-
NORTH CENTRAL ARIZONA

CITY           SKY/WX    TMP DP  RH WIND       PRES   REMARKS
GRAND CANYON   MOCLDY    57  18  21 S10       29.85F
WILLIAMS       SUNNY     61  10  13 S15G22    29.89F
PRESCOTT       CLEAR     63  15  15 S7        29.81F
FLAGSTAFF      CLEAR     49  15  25 SW6       29.93S
PAYSON         MOSUNNY   66  21  18 SW5       29.89S
PAGE           CLEAR     77  16  10 SW10G20   29.63R
$$

AZZ009>014-017-251200-
NORTHEAST ARIZONA

CITY           SKY/WX    TMP DP  RH WIND       PRES   REMARKS
WINSLOW        CLEAR     59  25  27 S13       29.80S
SAINT JOHNS    PTCLDY    62  25  24 SW6       29.88R
WINDOW ROCK    CLEAR     55  22  27 S8        29.90S
SHOW LOW       PTCLDY    57  21  24 S15       29.94R
$$

AZZ023-251200-
GREATER PHOENIX AREA

CITY           SKY/WX    TMP DP  RH WIND       PRES   REMARKS
PHOENIX        MOCLDY    87  26  11 N5        29.60R
LUKE AFB       PTCLDY    75  36  24 NE5       29.61R
DEER VALLEY    MOCLDY    81  27  14 SW5       29.63R
SCOTTSDALE     PTCLDY    80  27  14 CALM      29.65R
MESA-GATEWAY   MOCLDY    73  32  21 SE8       29.65S
$$

AZZ027-028-251200-
SOUTHWEST MARICOPA COUNTY AND PINAL COUNTY

CITY           SKY/WX    TMP DP  RH WIND       PRES   REMARKS
CASA GRANDE    CLOUDY    77  28  16 SW7       29.66S
$$

AZZ503-504-507>509-251200-
SOUTHEAST ARIZONA

CITY           SKY/WX    TMP DP  RH WIND       PRES   REMARKS
TUCSON         CLOUDY    79  23  12 SE9       29.76F
DAVIS-MONTHAN  MOCLDY    74  24  15 E7        29.76S
NOGALES        PTCLDY    72  24  16 S8        29.86S
SIERRA VISTA   PTCLDY    73  21  14 CALM      29.89F
DOUGLAS        MOCLDY    67  20  16 E9        29.87F
SAFFORD        PTCLDY    74  19  12 S7        29.75R
$$

AZZ020-021-025-026-031-251200-
SOUTHWEST ARIZONA

CITY           SKY/WX    TMP DP  RH WIND       PRES   REMARKS
YUMA           MOCLDY    75  24  15 W3        29.59R
$$

CAZ031-033-041-043-047-048-061-251200-
SOUTHERN CALIFORNIA

CITY           SKY/WX    TMP DP  RH WIND       PRES   REMARKS
DOWNTOWN L.A.  CLOUDY    61  52  72 CALM      29.84
L.A. AIRPORT   CLOUDY    59  51  75 SW6       29.85S
SAN DIEGO      CLOUDY    62  49  62 SW3       29.87S
BURBANK        CLOUDY    58  50  75 S7        29.83F
ONTARIO        CLOUDY    57  53  86 SW6       29.84F
RIVERSIDE      CLOUDY    57  54  89 W6        29.84F
PALM SPRINGS   CLEAR     71  40  32 CALM      29.60S
EL CENTRO NAS  LGT RAIN  80  12   7 W28G36    29.59S
IMPERIAL       LGT RAIN  77  23  13 W9        29.58R
BLYTHE         PTCLDY    75  35  23 VRB5      29.55S
NEEDLES        CLEAR     82  34  17 SW8       29.54R
$$

NVZ020-UTZ003-251200-
SOUTHERN NEVADA-UTAH

CITY           SKY/WX    TMP DP  RH WIND       PRES   REMARKS
LAS VEGAS      PTCLDY    80  27  14 S14G20    29.51R
SALT LAKE CITY CLOUDY    59  40  49 N24       29.70R
$$

NMZ009-TXZ055-251200-
NEW MEXICO-WEST TEXAS

CITY           SKY/WX    TMP DP  RH WIND       PRES   REMARKS
ALBUQUERQUE    MOCLDY    69  22  16 VRB6      29.82R
EL PASO        MOCLDY    81  16   9 W14       29.80R
$$


........................KEY........................
SKY/WX - SKY CONDITION/WEATHER
TMP    - TEMPERATURE IN FAHRENHEIT
DP     - DEWPOINT IN FAHRENHEIT
RH     - RELATIVE HUMIDITY IN PERCENT
WIND   - DIRECTION AND SPEED IN MILES PER HOUR (MPH)
VRB    - VARIABLE WIND DIRECTION
PRES   - MEAN SEA LEVEL PRESSURE IN INCHES OF MERCURY
         F - FALLING PRESSURE   R - RISING PRESSURE
         S - STEADY PRESSURE
VSB    - VISIBILITY IN MILES
HX     - HEAT INDEX IN FAHRENHEIT
WCI    - WIND CHILL INDEX IN FAHRENHEIT
TC     - TEMPERATURE IN CELSIUS WHICH IS ALSO KNOWN AS
         TEMPERATURE IN CENTIGRADE
AFB    - AIR FORCE BASE
         LUKE AFB IS LUKE AIR FORCE BASE
         DAVIS-MONTHAN IS DAVIS-MONTHAN AIR FORCE BASE
NAS    - NAVAL AIR STATION
         EL CENTRO NAS IS EL CENTRO NAVAL AIR STATION
N/A    - NOT AVAILABLE




USA.gov is the U.S. government's official web portal to all federal, state and local government web resources and services.